TimeCST,TemperatureF,Dew PointF,Humidity,Sea Level PressureIn,VisibilityMPH,Wind Direction,Wind SpeedMPH,Gust SpeedMPH,PrecipitationIn,Events,Conditions,WindDirDegrees,DateUTC
12:13 AM,12.2,10.4,92,30.12,10.0,WNW,9.2,-,N/A,,Overcast,290,2013-01-06 06:13:00
12:34 AM,14.0,10.4,86,30.12,10.0,WNW,11.5,18.4,N/A,,Overcast,300,2013-01-06 06:34:00
12:54 AM,14.0,10.4,86,30.14,10.0,NW,9.2,-,N/A,,Overcast,320,2013-01-06 06:54:00
1:34 AM,14.0,10.4,86,30.13,10.0,WNW,9.2,-,N/A,,Overcast,300,2013-01-06 07:34:00
1:54 AM,14.0,10.4,86,30.13,10.0,WNW,6.9,-,N/A,,Overcast,300,2013-01-06 07:54:00
2:13 AM,14.0,10.4,86,30.14,10.0,NW,6.9,-,N/A,,Overcast,310,2013-01-06 08:13:00
2:34 AM,12.2,8.6,85,30.12,10.0,SW,4.6,-,N/A,,Overcast,230,2013-01-06 08:34:00
2:53 AM,12.2,8.6,85,30.12,10.0,West,3.5,-,N/A,,Overcast,260,2013-01-06 08:53:00
3:14 AM,12.2,8.6,85,30.12,10.0,WSW,3.5,-,N/A,,Overcast,250,2013-01-06 09:14:00
3:34 AM,12.2,8.6,85,30.13,10.0,Calm,Calm,-,N/A,,Overcast,0,2013-01-06 09:34:00
3:53 AM,12.2,8.6,85,30.13,10.0,West,3.5,-,N/A,,Overcast,270,2013-01-06 09:53:00
4:14 AM,12.2,8.6,85,30.13,10.0,Calm,Calm,-,N/A,,Overcast,0,2013-01-06 10:14:00
4:34 AM,12.2,8.6,85,30.13,10.0,Calm,Calm,-,N/A,,Scattered Clouds,0,2013-01-06 10:34:00
4:53 AM,10.4,8.6,92,30.13,10.0,WNW,6.9,-,N/A,,Clear,290,2013-01-06 10:53:00
5:34 AM,12.2,6.8,79,30.14,10.0,WNW,6.9,-,N/A,,Clear,290,2013-01-06 11:34:00
5:53 AM,12.2,6.8,79,30.14,10.0,West,8.1,-,N/A,,Clear,280,2013-01-06 11:53:00
6:34 AM,10.4,6.8,85,30.15,10.0,WNW,3.5,-,N/A,,Clear,290,2013-01-06 12:34:00
6:53 AM,10.4,5.0,79,30.16,10.0,WNW,5.8,-,N/A,,Clear,290,2013-01-06 12:53:00
7:14 AM,10.4,5.0,79,30.17,10.0,Calm,Calm,-,N/A,,Clear,0,2013-01-06 13:14:00
7:34 AM,10.4,5.0,79,30.17,10.0,Calm,Calm,-,N/A,,Clear,0,2013-01-06 13:34:00
7:54 AM,8.6,5.0,85,30.17,10.0,Calm,Calm,-,N/A,,Clear,0,2013-01-06 13:54:00
8:14 AM,8.6,5.0,85,30.17,10.0,Calm,Calm,-,N/A,,Clear,0,2013-01-06 14:14:00
8:34 AM,8.6,5.0,85,30.17,10.0,West,4.6,-,N/A,,Clear,280,2013-01-06 14:34:00
8:54 AM,8.6,5.0,85,30.18,10.0,Calm,Calm,-,N/A,,Clear,0,2013-01-06 14:54:00
9:14 AM,10.4,5.0,79,30.18,10.0,Calm,Calm,-,N/A,,Clear,0,2013-01-06 15:14:00
9:34 AM,10.4,5.0,79,30.19,10.0,Calm,Calm,-,N/A,,Clear,0,2013-01-06 15:34:00
9:54 AM,10.4,6.8,85,30.19,10.0,Calm,Calm,-,N/A,,Clear,0,2013-01-06 15:54:00
10:13 AM,12.2,6.8,79,30.19,10.0,Calm,Calm,-,N/A,,Clear,0,2013-01-06 16:13:00
10:34 AM,14.0,6.8,73,30.19,10.0,Calm,Calm,-,N/A,,Clear,0,2013-01-06 16:34:00
10:54 AM,14.0,6.8,73,30.19,10.0,Calm,Calm,-,N/A,,Clear,0,2013-01-06 16:54:00
11:13 AM,15.8,6.8,68,30.19,10.0,WSW,3.5,-,N/A,,Clear,240,2013-01-06 17:13:00
11:34 AM,15.8,8.6,73,30.18,10.0,Calm,Calm,-,N/A,,Clear,0,2013-01-06 17:34:00
11:54 AM,15.8,8.6,73,30.17,10.0,Calm,Calm,-,N/A,,Clear,0,2013-01-06 17:54:00
12:14 PM,15.8,8.6,73,30.16,10.0,SSE,3.5,-,N/A,,Clear,150,2013-01-06 18:14:00
12:34 PM,15.8,8.6,73,30.15,10.0,SSE,3.5,-,N/A,,Clear,160,2013-01-06 18:34:00
12:54 PM,17.6,8.6,68,30.14,10.0,South,5.8,-,N/A,,Clear,180,2013-01-06 18:54:00
1:14 PM,17.6,10.4,73,30.14,10.0,South,3.5,-,N/A,,Clear,170,2013-01-06 19:14:00
1:34 PM,17.6,10.4,73,30.13,10.0,South,6.9,-,N/A,,Clear,170,2013-01-06 19:34:00
1:54 PM,17.6,10.4,73,30.11,10.0,SSE,4.6,-,N/A,,Clear,150,2013-01-06 19:54:00
2:14 PM,17.6,10.4,73,30.10,10.0,SSE,5.8,-,N/A,,Clear,160,2013-01-06 20:14:00
2:34 PM,17.6,10.4,73,30.11,10.0,SSE,6.9,-,N/A,,Clear,150,2013-01-06 20:34:00
2:54 PM,17.6,10.4,73,30.10,10.0,SE,9.2,-,N/A,,Clear,140,2013-01-06 20:54:00
3:14 PM,15.8,10.4,79,30.10,10.0,SE,10.4,-,N/A,,Clear,140,2013-01-06 21:14:00
3:34 PM,15.8,10.4,79,30.10,10.0,SSE,6.9,-,N/A,,Clear,150,2013-01-06 21:34:00
3:54 PM,15.8,10.4,79,30.10,10.0,SE,9.2,-,N/A,,Clear,140,2013-01-06 21:54:00
4:13 PM,15.8,8.6,73,30.08,10.0,SE,9.2,-,N/A,,Clear,140,2013-01-06 22:13:00
4:34 PM,15.8,8.6,73,30.08,10.0,SE,11.5,-,N/A,,Clear,140,2013-01-06 22:34:00
4:54 PM,14.0,8.6,79,30.07,10.0,SE,9.2,-,N/A,,Clear,140,2013-01-06 22:54:00
5:14 PM,12.2,8.6,85,30.06,10.0,SE,12.7,-,N/A,,Clear,140,2013-01-06 23:14:00
5:33 PM,12.2,8.6,85,30.04,10.0,SE,13.8,-,N/A,,Clear,140,2013-01-06 23:33:00
5:54 PM,12.2,8.6,85,30.03,10.0,SE,12.7,-,N/A,,Clear,140,2013-01-06 23:54:00
6:13 PM,14.0,8.6,79,30.01,10.0,SE,13.8,-,N/A,,Clear,140,2013-01-07 00:13:00
6:34 PM,14.0,10.4,86,29.98,10.0,SE,16.1,-,N/A,,Clear,130,2013-01-07 00:34:00
6:54 PM,14.0,8.6,79,29.98,10.0,SE,15.0,-,N/A,,Clear,140,2013-01-07 00:54:00
7:34 PM,14.0,10.4,86,29.94,10.0,SE,16.1,-,N/A,,Clear,140,2013-01-07 01:34:00
7:54 PM,15.8,10.4,79,29.92,10.0,SE,15.0,-,N/A,,Clear,140,2013-01-07 01:54:00
8:14 PM,15.8,10.4,79,29.91,10.0,SE,13.8,-,N/A,,Clear,140,2013-01-07 02:14:00
8:34 PM,15.8,10.4,79,29.90,10.0,SE,12.7,-,N/A,,Clear,140,2013-01-07 02:34:00
9:14 PM,15.8,10.4,79,29.86,10.0,SSE,13.8,-,N/A,,Clear,150,2013-01-07 03:14:00
9:33 PM,15.8,10.4,79,29.85,10.0,SE,12.7,-,N/A,,Clear,140,2013-01-07 03:33:00
9:54 PM,15.8,10.4,79,29.84,10.0,SE,12.7,-,N/A,,Clear,140,2013-01-07 03:54:00
10:13 PM,15.8,10.4,79,29.83,10.0,SE,11.5,-,N/A,,Clear,140,2013-01-07 04:13:00
10:34 PM,15.8,10.4,79,29.82,10.0,SE,12.7,-,N/A,,Clear,130,2013-01-07 04:34:00
10:54 PM,15.8,12.2,86,29.81,10.0,SE,8.1,-,N/A,,Clear,130,2013-01-07 04:54:00
11:34 PM,17.6,12.2,79,29.81,10.0,SSE,3.5,-,N/A,,Clear,160,2013-01-07 05:34:00
11:54 PM,24.8,17.6,74,29.80,10.0,South,8.1,-,N/A,,Clear,190,2013-01-07 05:54:00